Time,TemperatureF,DewpointF,PressureIn,WindDirection,WindDirectionDegrees,WindSpeedMPH,WindSpeedGustMPH,Humidity,HourlyPrecipIn,Conditions,Clouds,dailyrainin,SoftwareType,DateUTC
2013-01-24 00:03:00,47.0,-99.9,-100.00,WNW,293,0.0,-999.0,-999,7.63,,,-99.99,,2013-01-24 07:03:00,
2013-01-24 00:13:00,47.0,-99.9,-100.00,WNW,293,0.0,-999.0,-999,7.63,,,-99.99,,2013-01-24 07:13:00,
2013-01-24 00:23:00,46.0,-99.9,-100.00,WNW,293,0.0,-999.0,-999,7.63,,,-99.99,,2013-01-24 07:23:00,
2013-01-24 00:34:00,46.0,-99.9,-100.00,WNW,293,0.0,-999.0,-999,7.63,,,-99.99,,2013-01-24 07:34:00,
2013-01-24 00:43:00,46.0,-99.9,-100.00,WNW,293,0.0,-999.0,-999,7.63,,,-99.99,,2013-01-24 07:43:00,
2013-01-24 00:53:00,47.0,-99.9,-100.00,WNW,293,0.0,-999.0,-999,7.63,,,-99.99,,2013-01-24 07:53:00,
2013-01-24 01:03:00,47.0,-99.9,-100.00,ESE,103,2.0,-999.0,-999,7.63,,,-99.99,,2013-01-24 08:03:00,
2013-01-24 01:13:00,47.0,-99.9,-100.00,ESE,103,2.0,-999.0,-999,7.63,,,-99.99,,2013-01-24 08:13:00,
2013-01-24 01:23:00,46.0,-99.9,-100.00,NW,308,3.0,-999.0,-999,7.63,,,-99.99,,2013-01-24 08:23:00,
2013-01-24 01:33:00,47.0,-99.9,-100.00,NE,53,0.0,-999.0,-999,7.63,,,-99.99,,2013-01-24 08:33:00,
2013-01-24 01:43:00,47.0,-99.9,-100.00,NE,53,0.0,-999.0,-999,7.63,,,-99.99,,2013-01-24 08:43:00,
2013-01-24 01:53:00,46.0,-99.9,-100.00,WNW,301,0.0,-999.0,-999,7.63,,,-99.99,,2013-01-24 08:53:00,
2013-01-24 02:03:00,46.0,-99.9,-100.00,WNW,301,0.0,-999.0,-999,7.63,,,-99.99,,2013-01-24 09:03:00,
2013-01-24 02:13:00,46.0,-99.9,-100.00,WNW,301,0.0,-999.0,-999,7.63,,,-99.99,,2013-01-24 09:13:00,
2013-01-24 02:23:00,45.0,-99.9,-100.00,West,264,0.0,-999.0,-999,7.63,,,-99.99,,2013-01-24 09:23:00,
2013-01-24 02:34:00,44.0,-99.9,-100.00,NNE,30,0.0,-999.0,-999,7.63,,,-99.99,,2013-01-24 09:34:00,
2013-01-24 02:43:00,44.0,-99.9,-100.00,NNE,30,0.0,-999.0,-999,7.63,,,-99.99,,2013-01-24 09:43:00,
2013-01-24 02:53:00,45.0,-99.9,-100.00,NNE,30,0.0,-999.0,-999,7.63,,,-99.99,,2013-01-24 09:53:00,
2013-01-24 03:03:00,43.0,-99.9,-100.00,WSW,255,2.0,-999.0,-999,7.63,,,-99.99,,2013-01-24 10:03:00,
2013-01-24 03:13:00,43.0,-99.9,-100.00,WSW,255,2.0,-999.0,-999,7.63,,,-99.99,,2013-01-24 10:13:00,
2013-01-24 03:23:00,43.0,-99.9,-100.00,WSW,250,0.0,-999.0,-999,7.63,,,-99.99,,2013-01-24 10:23:00,
2013-01-24 03:34:00,43.0,-99.9,-100.00,West,280,0.0,-999.0,-999,7.63,,,-99.99,,2013-01-24 10:34:00,
2013-01-24 03:44:00,43.0,-99.9,-100.00,West,280,0.0,-999.0,-999,7.63,,,-99.99,,2013-01-24 10:44:00,
2013-01-24 03:53:00,43.0,-99.9,-100.00,NW,315,4.0,-999.0,-999,7.63,,,-99.99,,2013-01-24 10:53:00,
2013-01-24 04:03:00,44.0,-99.9,-100.00,WNW,284,0.0,-999.0,-999,7.63,,,-99.99,,2013-01-24 11:03:00,
2013-01-24 04:13:00,44.0,-99.9,-100.00,WNW,284,0.0,-999.0,-999,7.63,,,-99.99,,2013-01-24 11:13:00,
2013-01-24 04:23:00,43.0,-99.9,-100.00,West,259,0.0,-999.0,-999,7.63,,,-99.99,,2013-01-24 11:23:00,
2013-01-24 04:34:00,43.0,-99.9,-100.00,West,259,0.0,-999.0,-999,7.63,,,-99.99,,2013-01-24 11:34:00,
2013-01-24 04:43:00,43.0,-99.9,-100.00,West,259,0.0,-999.0,-999,7.63,,,-99.99,,2013-01-24 11:43:00,
2013-01-24 04:53:00,44.0,-99.9,-100.00,West,259,0.0,-999.0,-999,7.63,,,-99.99,,2013-01-24 11:53:00,
2013-01-24 05:03:00,44.0,-99.9,-100.00,West,259,0.0,-999.0,-999,7.63,,,-99.99,,2013-01-24 12:03:00,
2013-01-24 05:12:00,44.0,-99.9,-100.00,West,259,0.0,-999.0,-999,7.63,,,-99.99,,2013-01-24 12:12:00,
2013-01-24 05:23:00,43.0,-99.9,-100.00,West,259,0.0,-999.0,-999,7.63,,,-99.99,,2013-01-24 12:23:00,
2013-01-24 05:33:00,42.0,-99.9,-100.00,West,259,0.0,-999.0,-999,7.63,,,-99.99,,2013-01-24 12:33:00,
2013-01-24 05:43:00,42.0,-99.9,-100.00,West,259,0.0,-999.0,-999,7.63,,,-99.99,,2013-01-24 12:43:00,
2013-01-24 05:53:00,44.0,-99.9,-100.00,West,263,0.0,-999.0,-999,7.63,,,-99.99,,2013-01-24 12:53:00,
2013-01-24 06:03:00,44.0,-99.9,-100.00,SSW,212,0.0,-999.0,-999,7.63,,,-99.99,,2013-01-24 13:03:00,
2013-01-24 06:13:00,44.0,-99.9,-100.00,SSW,212,0.0,-999.0,-999,7.63,,,-99.99,,2013-01-24 13:13:00,
2013-01-24 06:23:00,44.0,-99.9,-100.00,SSW,212,0.0,-999.0,-999,7.63,,,-99.99,,2013-01-24 13:23:00,
2013-01-24 06:33:00,43.0,-99.9,-100.00,SSW,212,0.0,-999.0,-999,7.63,,,-99.99,,2013-01-24 13:33:00,
2013-01-24 06:43:00,43.0,-99.9,-100.00,SSW,212,0.0,-999.0,-999,7.63,,,-99.99,,2013-01-24 13:43:00,
2013-01-24 06:53:00,43.0,-99.9,-100.00,SSW,212,0.0,-999.0,-999,7.63,,,-99.99,,2013-01-24 13:53:00,
2013-01-24 07:03:00,43.0,-99.9,-100.00,NW,311,0.0,-999.0,-999,7.63,,,-99.99,,2013-01-24 14:03:00,
2013-01-24 07:13:00,43.0,-99.9,-100.00,NW,311,0.0,-999.0,-999,7.63,,,-99.99,,2013-01-24 14:13:00,
2013-01-24 07:23:00,43.0,-99.9,-100.00,East,97,0.0,-999.0,-999,7.63,,,-99.99,,2013-01-24 14:23:00,
2013-01-24 07:33:00,43.0,-99.9,-100.00,East,97,0.0,-999.0,-999,7.63,,,-99.99,,2013-01-24 14:33:00,
2013-01-24 07:43:00,43.0,-99.9,-100.00,East,97,0.0,-999.0,-999,7.63,,,-99.99,,2013-01-24 14:43:00,
2013-01-24 07:54:00,43.0,-99.9,-100.00,East,94,0.0,-999.0,-999,7.63,,,-99.99,,2013-01-24 14:54:00,
2013-01-24 08:04:00,43.0,-99.9,-100.00,East,94,0.0,-999.0,-999,7.63,,,-99.99,,2013-01-24 15:04:00,
2013-01-24 08:13:00,43.0,-99.9,-100.00,East,94,0.0,-999.0,-999,7.63,,,-99.99,,2013-01-24 15:13:00,
2013-01-24 08:23:00,45.0,-99.9,-100.00,NE,45,2.0,-999.0,-999,7.63,,,-99.99,,2013-01-24 15:23:00,
2013-01-24 08:33:00,45.0,-99.9,-100.00,NE,45,2.0,-999.0,-999,7.63,,,-99.99,,2013-01-24 15:33:00,
2013-01-24 08:43:00,45.0,-99.9,-100.00,NE,45,2.0,-999.0,-999,7.63,,,-99.99,,2013-01-24 15:43:00,
2013-01-24 08:53:00,48.0,-99.9,-100.00,NE,53,0.0,-999.0,-999,7.63,,,-99.99,,2013-01-24 15:53:00,
2013-01-24 09:04:00,48.0,-99.9,-100.00,NE,55,1.0,-999.0,-999,7.63,,,-99.99,,2013-01-24 16:04:00,
2013-01-24 09:12:00,48.0,-99.9,-100.00,NE,55,1.0,-999.0,-999,7.63,,,-99.99,,2013-01-24 16:12:00,
2013-01-24 09:23:00,49.0,-99.9,-100.00,East,82,0.0,-999.0,-999,7.63,,,-99.99,,2013-01-24 16:23:00,
2013-01-24 09:34:00,49.0,-99.9,-100.00,East,82,0.0,-999.0,-999,7.63,,,-99.99,,2013-01-24 16:34:00,
2013-01-24 09:43:00,49.0,-99.9,-100.00,East,82,0.0,-999.0,-999,7.63,,,-99.99,,2013-01-24 16:43:00,
2013-01-24 10:03:00,50.0,-99.9,-100.00,East,82,0.0,-999.0,-999,7.63,,,-99.99,,2013-01-24 17:03:00,
2013-01-24 10:12:00,50.0,-99.9,-100.00,East,82,0.0,-999.0,-999,7.63,,,-99.99,,2013-01-24 17:12:00,
2013-01-24 10:22:00,50.0,-99.9,-100.00,East,82,0.0,-999.0,-999,7.63,,,-99.99,,2013-01-24 17:22:00,
2013-01-24 10:33:00,51.0,-99.9,-100.00,East,82,0.0,-999.0,-999,7.63,,,-99.99,,2013-01-24 17:33:00,
2013-01-24 10:43:00,51.0,-99.9,-100.00,East,82,0.0,-999.0,-999,7.63,,,-99.99,,2013-01-24 17:43:00,
2013-01-24 10:53:00,51.0,-99.9,-100.00,East,82,0.0,-999.0,-999,7.63,,,-99.99,,2013-01-24 17:53:00,
2013-01-24 11:03:00,51.0,-99.9,-100.00,WSW,255,0.0,-999.0,-999,7.63,,,-99.99,,2013-01-24 18:03:00,
2013-01-24 11:13:00,51.0,-99.9,-100.00,WSW,255,0.0,-999.0,-999,7.64,,,-99.99,,2013-01-24 18:13:00,
2013-01-24 11:23:00,51.0,-99.9,-100.00,WSW,255,0.0,-999.0,-999,7.64,,,-99.99,,2013-01-24 18:23:00,
2013-01-24 11:33:00,51.0,-99.9,-100.00,WSW,255,0.0,-999.0,-999,7.64,,,-99.99,,2013-01-24 18:33:00,
2013-01-24 11:43:00,51.0,-99.9,-100.00,WSW,255,0.0,-999.0,-999,7.64,,,-99.99,,2013-01-24 18:43:00,
2013-01-24 11:54:00,51.0,-99.9,-100.00,WSW,255,0.0,-999.0,-999,7.64,,,-99.99,,2013-01-24 18:54:00,
2013-01-24 12:02:00,52.0,-99.9,-100.00,North,7,0.0,-999.0,-999,7.64,,,-99.99,,2013-01-24 19:02:00,
2013-01-24 12:13:00,52.0,-99.9,-100.00,NW,316,0.0,-999.0,-999,7.64,,,-99.99,,2013-01-24 19:13:00,
2013-01-24 12:22:00,52.0,-99.9,-100.00,NW,316,0.0,-999.0,-999,7.64,,,-99.99,,2013-01-24 19:22:00,
2013-01-24 12:33:00,52.0,-99.9,-100.00,NW,316,0.0,-999.0,-999,7.64,,,-99.99,,2013-01-24 19:33:00,
2013-01-24 12:42:00,53.0,-99.9,-100.00,SSE,165,0.0,-999.0,-999,7.64,,,-99.99,,2013-01-24 19:42:00,
2013-01-24 12:53:00,53.0,-99.9,-100.00,SSE,165,0.0,-999.0,-999,7.64,,,-99.99,,2013-01-24 19:53:00,
2013-01-24 13:03:00,52.0,-99.9,-100.00,ENE,63,0.0,-999.0,-999,7.64,,,-99.99,,2013-01-24 20:03:00,
2013-01-24 13:12:00,52.0,-99.9,-100.00,ENE,63,0.0,-999.0,-999,7.64,,,-99.99,,2013-01-24 20:12:00,
2013-01-24 13:23:00,52.0,-99.9,-100.00,ENE,63,0.0,-999.0,-999,7.64,,,-99.99,,2013-01-24 20:23:00,
2013-01-24 13:33:00,54.0,-99.9,-100.00,East,90,3.0,-999.0,-999,7.64,,,-99.99,,2013-01-24 20:33:00,
2013-01-24 13:43:00,53.0,-99.9,-100.00,East,100,3.0,-999.0,-999,7.64,,,-99.99,,2013-01-24 20:43:00,
2013-01-24 13:53:00,53.0,-99.9,-100.00,East,100,3.0,-999.0,-999,7.64,,,-99.99,,2013-01-24 20:53:00,
2013-01-24 14:03:00,53.0,-99.9,-100.00,East,96,0.0,-999.0,-999,7.64,,,-99.99,,2013-01-24 21:03:00,
2013-01-24 14:13:00,54.0,-99.9,-100.00,East,96,0.0,-999.0,-999,7.64,,,-99.99,,2013-01-24 21:13:00,
2013-01-24 14:23:00,54.0,-99.9,-100.00,East,96,0.0,-999.0,-999,7.64,,,-99.99,,2013-01-24 21:23:00,
2013-01-24 14:33:00,54.0,-99.9,-100.00,East,96,0.0,-999.0,-999,7.64,,,-99.99,,2013-01-24 21:33:00,
2013-01-24 14:44:00,54.0,-99.9,-100.00,East,96,0.0,-999.0,-999,7.64,,,-99.99,,2013-01-24 21:44:00,
2013-01-24 14:53:00,54.0,-99.9,-100.00,East,96,0.0,-999.0,-999,7.64,,,-99.99,,2013-01-24 21:53:00,
2013-01-24 15:03:00,53.0,-99.9,-100.00,East,83,0.0,-999.0,-999,7.64,,,-99.99,,2013-01-24 22:03:00,
2013-01-24 15:12:00,53.0,-99.9,-100.00,East,93,4.0,-999.0,-999,7.64,,,-99.99,,2013-01-24 22:12:00,
2013-01-24 15:23:00,53.0,-99.9,-100.00,East,93,4.0,-999.0,-999,7.64,,,-99.99,,2013-01-24 22:23:00,
2013-01-24 15:33:00,53.0,-99.9,-100.00,ESE,103,0.0,-999.0,-999,7.64,,,-99.99,,2013-01-24 22:33:00,
2013-01-24 15:43:00,53.0,-99.9,-100.00,ESE,103,0.0,-999.0,-999,7.64,,,-99.99,,2013-01-24 22:43:00,
2013-01-24 15:53:00,53.0,-99.9,-100.00,ESE,103,0.0,-999.0,-999,7.64,,,-99.99,,2013-01-24 22:53:00,
2013-01-24 16:03:00,51.0,-99.9,-100.00,ESE,103,0.0,-999.0,-999,7.64,,,-99.99,,2013-01-24 23:03:00,
2013-01-24 16:13:00,51.0,-99.9,-100.00,ESE,103,0.0,-999.0,-999,7.64,,,-99.99,,2013-01-24 23:13:00,
2013-01-24 16:22:00,51.0,-99.9,-100.00,South,177,0.0,-999.0,-999,7.64,,,-99.99,,2013-01-24 23:22:00,
2013-01-24 16:32:00,51.0,-99.9,-100.00,South,177,0.0,-999.0,-999,7.64,,,-99.99,,2013-01-24 23:32:00,
2013-01-24 16:43:00,51.0,-99.9,-100.00,South,177,0.0,-999.0,-999,7.64,,,-99.99,,2013-01-24 23:43:00,
2013-01-24 16:52:00,51.0,-99.9,-100.00,SSE,149,2.0,-999.0,-999,7.64,,,-99.99,,2013-01-24 23:52:00,
2013-01-24 17:02:00,51.0,-99.9,-100.00,SSE,149,2.0,-999.0,-999,7.64,,,-99.99,,2013-01-25 00:02:00,
2013-01-24 17:12:00,51.0,-99.9,-100.00,SSE,149,2.0,-999.0,-999,7.64,,,-99.99,,2013-01-25 00:12:00,
2013-01-24 17:22:00,51.0,-99.9,-100.00,ESE,115,0.0,-999.0,-999,7.64,,,-99.99,,2013-01-25 00:22:00,
2013-01-24 17:32:00,50.0,-99.9,-100.00,East,90,6.0,-999.0,-999,7.64,,,-99.99,,2013-01-25 00:32:00,
2013-01-24 17:42:00,50.0,-99.9,-100.00,East,90,6.0,-999.0,-999,7.64,,,-99.99,,2013-01-25 00:42:00,
2013-01-24 17:53:00,50.0,-99.9,-100.00,East,87,2.0,-999.0,-999,7.64,,,-99.99,,2013-01-25 00:53:00,
2013-01-24 18:02:00,50.0,-99.9,-100.00,East,87,2.0,-999.0,-999,7.64,,,-99.99,,2013-01-25 01:02:00,
2013-01-24 18:13:00,49.0,-99.9,-100.00,ENE,60,0.0,-999.0,-999,7.64,,,-99.99,,2013-01-25 01:13:00,
2013-01-24 18:22:00,49.0,-99.9,-100.00,ENE,60,0.0,-999.0,-999,7.64,,,-99.99,,2013-01-25 01:22:00,
2013-01-24 18:33:00,49.0,-99.9,-100.00,East,86,3.0,-999.0,-999,7.64,,,-99.99,,2013-01-25 01:33:00,
2013-01-24 18:43:00,49.0,-99.9,-100.00,East,86,3.0,-999.0,-999,7.64,,,-99.99,,2013-01-25 01:43:00,
2013-01-24 18:52:00,48.0,-99.9,-100.00,ENE,69,0.0,-999.0,-999,7.64,,,-99.99,,2013-01-25 01:52:00,
2013-01-24 19:03:00,49.0,-99.9,-100.00,NE,39,2.0,-999.0,-999,7.64,,,-99.99,,2013-01-25 02:03:00,
2013-01-24 19:12:00,49.0,-99.9,-100.00,NE,39,2.0,-999.0,-999,7.64,,,-99.99,,2013-01-25 02:12:00,
2013-01-24 19:22:00,49.0,-99.9,-100.00,NE,39,2.0,-999.0,-999,7.64,,,-99.99,,2013-01-25 02:22:00,
2013-01-24 19:33:00,49.0,-99.9,-100.00,NE,45,0.0,-999.0,-999,7.64,,,-99.99,,2013-01-25 02:33:00,
2013-01-24 19:43:00,49.0,-99.9,-100.00,NE,45,0.0,-999.0,-999,7.64,,,-99.99,,2013-01-25 02:43:00,
2013-01-24 19:53:00,49.0,-99.9,-100.00,NE,45,0.0,-999.0,-999,7.64,,,-99.99,,2013-01-25 02:53:00,
2013-01-24 20:02:00,49.0,-99.9,-100.00,NE,45,0.0,-999.0,-999,7.64,,,-99.99,,2013-01-25 03:02:00,
2013-01-24 20:12:00,49.0,-99.9,-100.00,NE,45,0.0,-999.0,-999,7.64,,,-99.99,,2013-01-25 03:12:00,
2013-01-24 20:22:00,49.0,-99.9,-100.00,NE,45,0.0,-999.0,-999,7.64,,,-99.99,,2013-01-25 03:22:00,
2013-01-24 20:33:00,49.0,-99.9,-100.00,NE,45,0.0,-999.0,-999,7.64,,,-99.99,,2013-01-25 03:33:00,
2013-01-24 20:42:00,49.0,-99.9,-100.00,NE,45,0.0,-999.0,-999,7.64,,,-99.99,,2013-01-25 03:42:00,
2013-01-24 20:53:00,48.0,-99.9,-100.00,NE,45,0.0,-999.0,-999,7.64,,,-99.99,,2013-01-25 03:53:00,
2013-01-24 21:02:00,48.0,-99.9,-100.00,NE,45,0.0,-999.0,-999,7.64,,,-99.99,,2013-01-25 04:02:00,
2013-01-24 21:12:00,47.0,-99.9,-100.00,NE,45,0.0,-999.0,-999,7.64,,,-99.99,,2013-01-25 04:12:00,
2013-01-24 21:23:00,47.0,-99.9,-100.00,NE,45,0.0,-999.0,-999,7.64,,,-99.99,,2013-01-25 04:23:00,
2013-01-24 21:32:00,47.0,-99.9,-100.00,NE,45,0.0,-999.0,-999,7.64,,,-99.99,,2013-01-25 04:32:00,
2013-01-24 21:42:00,47.0,-99.9,-100.00,NE,45,0.0,-999.0,-999,7.64,,,-99.99,,2013-01-25 04:42:00,
2013-01-24 21:52:00,48.0,-99.9,-100.00,NE,45,0.0,-999.0,-999,7.64,,,-99.99,,2013-01-25 04:52:00,
2013-01-24 22:04:00,47.0,-99.9,-100.00,NE,49,1.0,-999.0,-999,7.64,,,-99.99,,2013-01-25 05:04:00,
2013-01-24 22:12:00,48.0,-99.9,-100.00,NE,41,0.0,-999.0,-999,7.64,,,-99.99,,2013-01-25 05:12:00,
2013-01-24 22:22:00,48.0,-99.9,-100.00,NE,41,0.0,-999.0,-999,7.64,,,-99.99,,2013-01-25 05:22:00,
2013-01-24 22:32:00,48.0,-99.9,-100.00,ENE,60,3.0,-999.0,-999,7.64,,,-99.99,,2013-01-25 05:32:00,
2013-01-24 22:43:00,48.0,-99.9,-100.00,ENE,60,3.0,-999.0,-999,7.64,,,-99.99,,2013-01-25 05:43:00,
2013-01-24 22:52:00,48.0,-99.9,-100.00,NNE,20,0.0,-999.0,-999,7.64,,,-99.99,,2013-01-25 05:52:00,
2013-01-24 23:02:00,48.0,-99.9,-100.00,SW,225,0.0,-999.0,-999,7.64,,,-99.99,,2013-01-25 06:02:00,
2013-01-24 23:12:00,48.0,-99.9,-100.00,SW,225,0.0,-999.0,-999,7.64,,,-99.99,,2013-01-25 06:12:00,
2013-01-24 23:22:00,47.0,-99.9,-100.00,SW,225,0.0,-999.0,-999,7.64,,,-99.99,,2013-01-25 06:22:00,
2013-01-24 23:32:00,46.0,-99.9,-100.00,SW,225,0.0,-999.0,-999,7.64,,,-99.99,,2013-01-25 06:32:00,
2013-01-24 23:42:00,47.0,-99.9,-100.00,SW,225,0.0,-999.0,-999,7.64,,,-99.99,,2013-01-25 06:42:00,
2013-01-24 23:52:00,47.0,-99.9,-100.00,SW,225,0.0,-999.0,-999,7.64,,,-99.99,,2013-01-25 06:52:00,